GLO1441 SBBR-SBPS

Flight info

Callsign GLO1441
Flight time N/A
Altitude 39000
Route SAVPU DCT EVPIV DCT IVPEG
Aircraft B737/M-SDE2E3FGHIRWXY/LB1

Departure

Time N/A
Airport Presidente Juscelino Kubitschek International Airport (SBBR)

Arrival

Time 2026-04-30 03:33
Airport Porto Seguro International Airport (SBPS)
Time Latitude Longitude Altitude Speed Heading
2026-04-30 03:24 -16.70140 -39.46701 8347 ft 264 kts 60°
2026-04-30 03:25 -16.69193 -39.45061 7995 ft 263 kts 60°
2026-04-30 03:25 -16.68255 -39.43428 7648 ft 262 kts 60°
2026-04-30 03:25 -16.67322 -39.41796 7294 ft 262 kts 60°
2026-04-30 03:25 -16.66394 -39.40167 6951 ft 261 kts 60°
2026-04-30 03:26 -16.65470 -39.38542 6607 ft 260 kts 60°
2026-04-30 03:26 -16.64551 -39.36923 6255 ft 259 kts 60°
2026-04-30 03:26 -16.63633 -39.35306 5897 ft 258 kts 61°
2026-04-30 03:26 -16.62722 -39.33700 5539 ft 257 kts 61°
2026-04-30 03:27 -16.61813 -39.32097 5207 ft 256 kts 61°
2026-04-30 03:27 -16.60907 -39.30503 4869 ft 255 kts 61°
2026-04-30 03:27 -16.60008 -39.28920 4522 ft 254 kts 61°
2026-04-30 03:27 -16.59043 -39.27375 4158 ft 254 kts 49°
2026-04-30 03:28 -16.57576 -39.26427 4044 ft 248 kts 19°
2026-04-30 03:28 -16.55909 -39.26107 3932 ft 241 kts
2026-04-30 03:28 -16.54260 -39.25986 3807 ft 233 kts
2026-04-30 03:28 -16.52678 -39.25880 3698 ft 224 kts
2026-04-30 03:29 -16.51145 -39.25770 3598 ft 216 kts
2026-04-30 03:29 -16.49669 -39.25626 3394 ft 210 kts 16°
2026-04-30 03:29 -16.48501 -39.24868 3164 ft 195 kts 60°
2026-04-30 03:29 -16.48044 -39.23595 2988 ft 183 kts 76°
2026-04-30 03:30 -16.47703 -39.22340 2758 ft 177 kts 75°
2026-04-30 03:30 -16.47370 -39.21128 2523 ft 171 kts 75°
2026-04-30 03:30 -16.47050 -39.19951 2300 ft 166 kts 76°
2026-04-30 03:30 -16.46742 -39.18810 2081 ft 160 kts 76°
2026-04-30 03:31 -16.46444 -39.17706 1915 ft 158 kts 75°
2026-04-30 03:31 -16.46144 -39.16594 1700 ft 161 kts 75°
2026-04-30 03:31 -16.45842 -39.15476 1474 ft 159 kts 75°
2026-04-30 03:31 -16.45544 -39.14371 1274 ft 158 kts 75°
2026-04-30 03:32 -16.45257 -39.13309 1121 ft 145 kts 75°
2026-04-30 03:32 -16.45082 -39.12660 960 ft 138 kts 75°
2026-04-30 03:32 -16.44737 -39.11396 693 ft 137 kts 75°
2026-04-30 03:32 -16.44563 -39.10758 569 ft 140 kts 75°
2026-04-30 03:33 -16.44308 -39.09773 376 ft 140 kts 75°
2026-04-30 03:33 -16.43962 -39.08499 203 ft 127 kts 68°
2026-04-30 03:33 -16.43768 -39.07783 195 ft 73 kts 75°
2026-04-30 03:33 -16.43682 -39.07532 201 ft 19 kts 71°
2026-04-30 03:34 -16.43698 -39.07501 199 ft 4 kts 204°
2026-04-30 03:34 -16.43714 -39.07582 195 ft 25 kts 259°
2026-04-30 03:34 -16.43768 -39.07782 195 ft 29 kts 255°
2026-04-30 03:34 -16.43823 -39.07986 201 ft 30 kts 255°
2026-04-30 03:35 -16.43882 -39.08143 195 ft 13 kts 198°
2026-04-30 03:35 -16.43966 -39.08123 193 ft 12 kts 165°
2026-04-30 03:35 -16.43986 -39.08118 193 ft 0 kts 165°
2026-04-30 03:35 -16.43988 -39.08117 193 ft 1 kts 165°
2026-04-30 03:36 -16.44011 -39.08111 197 ft 5 kts 165°
2026-04-30 03:36 -16.44041 -39.08101 201 ft 4 kts 160°
2026-04-30 03:36 -16.44062 -39.08094 201 ft 0 kts 163°
2026-04-30 03:37 -16.44065 -39.08094 199 ft 1 kts 165°
2026-04-30 03:37 -16.44066 -39.08093 198 ft 0 kts 165°